METAR Formatted Surface Weather Observation
Issued by NWS

Home | Current Version | Previous Version | Text Only | Print | Product List | Glossary On
Versions: 1 2 3 4 5 6 7 8 9 10 11 12 13 14 15 16 17 18 19 20 21 22 23 24 25 26 27 28 29 30 31 32 33 34 35 36 37 38 39 40 41 42 43
817
SAUS42 KJAX 082257
MTRNPA
METAR KNPA 082256Z 29011KT 10SM FEW060 FEW250 13/M09 A2989 RMK AO2
PK WND 30027/2212 SLP124 T01281089



USA.gov is the U.S. government's official web portal to all federal, state and local government web resources and services.